Location: Luz Observatory
(34.5000°N, 117.2833°W)
Time: 01:16:54
(UTC-08:00)

Hubble Space Telescope - Visible Passes

Search period start: 16 December 2017 00:00
Search period end: 26 December 2017 00:00
Orbit: 537 x 541 km, 28.5° (Epoch: 15 December)

Date Brightness Start Highest point End Pass type
(mag) Time Alt. Az. Time Alt. Az. Time Alt. Az.
16 Dec 3.1 18:37:34 10° WSW 18:40:15 17° SSW 18:41:56 14° S visible
17 Dec 3.5 18:27:45 10° SW 18:29:55 14° SSW 18:32:05 10° S visible
18 Dec 3.7 18:18:18 10° SW 18:19:33 11° SSW 18:20:50 10° S visible
